#timestamp,LO_Frequency,Hit,StdDev 
1513504815.7,286046991.9,N
1513504835.5,286046992.9,N
1513504855.4,286046992.8,N
1513504875.2,286046994.4,N
1513504895.0,286046992.1,N
1513504895.9,286046992.1,N
1513504915.8,286046992.9,N
1513504935.6,286046993.6,N
1513504955.4,286046991.8,N
1513504975.3,286046993.0,N
1513504995.1,286046992.6,N
1513505015.9,286046994.8,N
1513505035.7,286046992.5,N
1513505055.5,286046991.8,N
1513505075.4,286046993.6,N
1513505095.2,286046994.6,N
1513505115.0,286046993.6,N
1513505115.9,286046993.6,N
1513505135.8,286046992.2,Y
1513505155.6,286046999.2,P
1513505175.5,286046999.0,N
1513505195.3,286046999.4,N
1513505215.1,286046999.8,N
1513505235.9,286047002.4,N
1513505255.7,286047001.1,N
1513505275.6,286047002.4,N
1513505295.4,286047002.2,N
1513505315.2,286047002.7,N
1513505335.1,286047002.2,N
1513505336.0,286047002.2,N
1513505355.8,286047002.3,N
1513505375.6,286047002.8,N
1513505395.5,286046999.9,N
1513505415.3,286047001.3,N
1513505435.2,286047004.1,N
1513505455.9,286046999.9,N
1513505475.7,286047000.4,N
1513505495.6,286047000.5,N
1513505515.4,286047000.3,N
1513505535.2,286047001.0,N
1513505555.1,286046998.1,N
1513505556.0,286046998.1,N
1513505575.8,286046998.5,N
1513505595.7,286046999.0,N
1513505615.5,286046998.3,N
1513505635.3,286047002.3,N
1513505655.2,286047000.6,N
1513505675.0,286047000.3,N
1513505675.9,286047000.3,N
1513505695.8,286047000.6,N
1513505715.6,286047001.9,N
1513505735.4,286047003.8,N
1513505755.3,286047003.7,N
1513505775.1,286047002.6,N
1513505795.8,286047002.0,N
1513505815.7,286047001.8,N
1513505835.5,286047003.8,N
1513505855.4,286047005.6,Y
1513505875.2,286047001.9,P
1513505895.0,286047000.1,N
1513505895.9,286047000.1,N
1513505915.8,286047000.4,N
1513505935.6,286047000.1,N
1513505955.5,286047000.1,N
1513505975.3,286047001.8,N
1513505995.1,286047002.1,N
1513506015.9,286047002.1,N
1513506035.7,286047002.1,N
1513506055.6,286047001.9,N
1513506075.4,286046999.7,N
1513506095.2,286047002.4,N
1513506115.1,286047002.1,N
1513506116.0,286047002.1,N
1513506135.8,286046998.1,N
1513506155.6,286046998.6,N
1513506175.5,286046998.2,N
1513506195.3,286047000.1,N
1513506215.2,286047004.4,Y
1513506235.0,286047004.4,P
1513506235.9,286047004.4,N
1513506255.7,286047002.2,N
1513506275.6,286046999.9,N
1513506295.4,286047001.2,N
1513506315.3,286046998.3,N
1513506335.1,286046998.3,N
1513506336.0,286046998.3,N
1513506355.8,286046998.4,N
1513506375.7,286047000.2,N
1513506395.5,286047001.7,N
1513506415.3,286047001.9,N
1513506435.2,286047004.0,N
1513506455.0,286047004.1,N
1513506455.9,286047004.1,N
1513506475.8,286047001.8,N
1513506495.6,286047002.2,N
1513506515.4,286047001.7,N
1513506535.3,286047001.5,N
1513506555.1,286046999.8,N
1513506575.8,286047001.7,N
1513506595.7,286047001.3,N
1513506615.5,286047001.8,N
1513506635.4,286047002.3,N
1513506655.2,286047000.9,N
1513506675.0,286047000.4,N
1513506675.9,286047000.4,N
1513506695.8,286046999.7,N
1513506715.6,286046998.7,N
1513506735.5,286046998.8,N
1513506755.3,286046998.4,N
1513506775.1,286047000.7,N
1513506795.9,286046998.8,N
1513506815.7,286047000.6,N
1513506835.6,286046998.7,N
1513506855.4,286047000.6,N
1513506875.2,286047000.0,N
1513506895.1,286046999.7,N
1513506896.0,286046999.7,N
1513506915.8,286047000.1,N
1513506935.6,286046999.9,N
1513506955.5,286047000.9,N
1513506975.3,286046998.2,N
1513506995.2,286046999.4,N
1513507015.9,286047001.2,N
1513507035.7,286047000.5,N
1513507055.6,286046998.5,N
1513507075.4,286047000.6,N
1513507095.2,286047000.2,N
1513507115.1,286047002.3,N
1513507116.0,286047002.3,N
1513507135.8,286046998.1,N
1513507155.7,286047000.8,N
1513507175.5,286046998.4,N
1513507195.3,286046998.7,N
1513507215.2,286046998.7,N
1513507235.0,286046998.2,N
1513507235.9,286046998.2,N
1513507255.8,286047000.3,N
1513507275.6,286046999.9,N
1513507295.4,286047002.2,N
1513507315.3,286047003.6,N
1513507335.1,286047003.3,N
1513507355.8,286047003.3,N
1513507375.7,286047003.5,N
1513507395.5,286047001.4,N
1513507415.4,286046999.8,N
1513507435.2,286047000.6,N
1513507455.0,286046998.7,N
1513507455.9,286046998.7,N
1513507475.8,286046998.4,N
1513507495.6,286047000.7,N
1513507515.4,286046999.8,N
1513507535.3,286046999.8,N
1513507555.1,286047002.7,N
1513507575.9,286047001.7,N
1513507595.7,286047000.6,N
1513507615.5,286047000.9,N
1513507635.4,286047002.3,N
1513507655.2,286046998.1,N
1513507675.0,286047001.2,N
1513507675.9,286047001.2,N
1513507695.8,286047000.9,N
1513507715.6,286046998.7,N
1513507735.5,286047000.5,N
1513507755.3,286047000.1,N
1513507775.1,286047002.2,N
1513507795.9,286047002.2,N
1513507815.7,286047002.5,N
1513507835.5,286047000.4,N
1513507855.4,286047001.9,N
1513507875.2,286047004.1,N
1513507895.1,286047003.2,N
1513507896.0,286047003.2,N
1513507915.8,286047001.4,N
1513507935.6,286047001.6,N
1513507955.5,286047002.6,N
1513507975.3,286047002.5,N
1513507995.1,286047001.9,N
1513508015.9,286046999.7,N
1513508035.7,286047008.3,Y
1513508055.6,286047006.2,P
1513508075.4,286047008.9,P
1513508095.2,286047006.2,N
1513508115.1,286047006.3,N
1513508116.0,286047006.3,N
1513508135.8,286047004.5,N
1513508155.7,286047007.2,Y
1513508175.5,286047001.1,P
1513508195.3,286046998.2,N
1513508215.2,286046997.0,N
1513508235.0,286046998.7,N
1513508235.9,286046998.7,N
1513508255.8,286046997.3,N
1513508275.6,286046998.0,N
1513508295.4,286047002.8,N
1513508315.3,286047007.4,N
1513508335.1,286047003.4,N
1513508355.8,286047004.1,N
1513508375.7,286047001.3,N
1513508395.5,286047007.8,N
